Year,Month,Day,Hour,Minute,Value (Times are PST for temperature in C)
2021,04,20,00,00,7.80
2021,04,20,00,01,7.80
2021,04,20,00,02,7.70
2021,04,20,00,03,7.70
2021,04,20,00,04,7.70
2021,04,20,00,05,7.70
2021,04,20,00,06,7.70
2021,04,20,00,07,7.70
2021,04,20,00,08,7.60
2021,04,20,00,09,7.60
2021,04,20,00,10,7.60
2021,04,20,00,11,7.60
2021,04,20,00,12,7.60
2021,04,20,00,13,7.50
2021,04,20,00,14,7.50
2021,04,20,00,15,7.50
2021,04,20,00,16,7.50
2021,04,20,00,17,7.50
2021,04,20,00,18,7.50
2021,04,20,00,19,7.50
2021,04,20,00,20,7.50
2021,04,20,00,21,7.40
2021,04,20,00,22,7.40
2021,04,20,00,23,7.40
2021,04,20,00,24,7.40
2021,04,20,00,25,7.40
2021,04,20,00,26,7.30
2021,04,20,00,27,7.30
2021,04,20,00,28,7.30
2021,04,20,00,29,7.30
2021,04,20,00,30,7.20
2021,04,20,00,31,7.20
2021,04,20,00,32,7.20
2021,04,20,00,33,7.10
2021,04,20,00,34,7.10
2021,04,20,00,35,7.10
2021,04,20,00,36,7.10
2021,04,20,00,37,7.00
2021,04,20,00,38,7.00
2021,04,20,00,39,7.00
2021,04,20,00,40,6.90
2021,04,20,00,41,6.90
2021,04,20,00,42,6.90
2021,04,20,00,43,6.90
2021,04,20,00,44,6.90
2021,04,20,00,45,6.90
2021,04,20,00,46,6.90
2021,04,20,00,47,6.90
2021,04,20,00,48,6.90
2021,04,20,00,49,6.80
2021,04,20,00,50,6.80
2021,04,20,00,51,6.80
2021,04,20,00,52,6.80
2021,04,20,00,53,6.80
2021,04,20,00,54,6.80
2021,04,20,00,55,6.80
2021,04,20,00,56,6.80
2021,04,20,00,57,6.80
2021,04,20,00,58,6.80
2021,04,20,00,59,6.80
2021,04,20,01,00,6.80
2021,04,20,01,01,6.80
2021,04,20,01,02,6.80
2021,04,20,01,03,6.80
2021,04,20,01,04,6.80
2021,04,20,01,05,6.80
2021,04,20,01,06,6.70
2021,04,20,01,07,6.70
2021,04,20,01,08,6.70
2021,04,20,01,09,6.70
2021,04,20,01,10,6.70
2021,04,20,01,11,6.70
2021,04,20,01,12,6.70
2021,04,20,01,13,6.70
2021,04,20,01,14,6.70
2021,04,20,01,15,6.70
2021,04,20,01,16,6.70
2021,04,20,01,17,6.70
2021,04,20,01,18,6.70
2021,04,20,01,19,6.70
2021,04,20,01,20,6.70
2021,04,20,01,21,6.70
2021,04,20,01,22,6.70
2021,04,20,01,23,6.70
2021,04,20,01,24,6.70
2021,04,20,01,25,6.60
2021,04,20,01,26,6.60
2021,04,20,01,27,6.60
2021,04,20,01,28,6.60
2021,04,20,01,29,6.50
2021,04,20,01,30,6.50
2021,04,20,01,31,6.50
2021,04,20,01,32,6.50
2021,04,20,01,33,6.50
2021,04,20,01,34,6.50
2021,04,20,01,35,6.50
2021,04,20,01,36,6.50
2021,04,20,01,37,6.50
2021,04,20,01,38,6.60
2021,04,20,01,39,6.60
2021,04,20,01,40,6.60
2021,04,20,01,41,6.60
2021,04,20,01,42,6.60
2021,04,20,01,43,6.70
2021,04,20,01,44,6.70
2021,04,20,01,45,6.70
2021,04,20,01,46,6.70
2021,04,20,01,47,6.70
2021,04,20,01,48,6.70
2021,04,20,01,49,6.70
2021,04,20,01,50,6.70
2021,04,20,01,51,6.70
2021,04,20,01,52,6.70
2021,04,20,01,53,6.70
2021,04,20,01,54,6.70
2021,04,20,01,55,6.70
2021,04,20,01,56,6.70
2021,04,20,01,57,6.70
2021,04,20,01,58,6.70
2021,04,20,01,59,6.70
2021,04,20,02,00,6.70
2021,04,20,02,01,6.70
2021,04,20,02,02,6.70
2021,04,20,02,03,6.70
2021,04,20,02,04,6.70
2021,04,20,02,05,6.70
2021,04,20,02,06,6.70
2021,04,20,02,07,6.70
2021,04,20,02,08,6.70
2021,04,20,02,09,6.70
2021,04,20,02,10,6.60
2021,04,20,02,11,6.70
2021,04,20,02,12,6.70
2021,04,20,02,13,6.70
2021,04,20,02,14,6.70
2021,04,20,02,15,6.70
2021,04,20,02,16,6.70
2021,04,20,02,17,6.70
2021,04,20,02,18,6.70
2021,04,20,02,19,6.70
2021,04,20,02,20,6.70
2021,04,20,02,21,6.70
2021,04,20,02,22,6.70
2021,04,20,02,23,6.70
2021,04,20,02,24,6.70
2021,04,20,02,25,6.70
2021,04,20,02,26,6.70
2021,04,20,02,27,6.70
2021,04,20,02,28,6.70
2021,04,20,02,29,6.60
2021,04,20,02,30,6.60
2021,04,20,02,31,6.60
2021,04,20,02,32,6.60
2021,04,20,02,33,6.60
2021,04,20,02,34,6.60
2021,04,20,02,35,6.60
2021,04,20,02,36,6.60
2021,04,20,02,37,6.60
2021,04,20,02,38,6.60
2021,04,20,02,39,6.60
2021,04,20,02,40,6.50
2021,04,20,02,41,6.50
2021,04,20,02,42,6.50
2021,04,20,02,43,6.50
2021,04,20,02,44,6.40
2021,04,20,02,45,6.40
2021,04,20,02,46,6.40
2021,04,20,02,47,6.40
2021,04,20,02,48,6.40
2021,04,20,02,49,6.40
2021,04,20,02,50,6.40
2021,04,20,02,51,6.40
2021,04,20,02,52,6.30
2021,04,20,02,53,6.30
2021,04,20,02,54,6.30
2021,04,20,02,55,6.30
2021,04,20,02,56,6.30
2021,04,20,02,57,6.30
2021,04,20,02,58,6.30
2021,04,20,02,59,6.30
2021,04,20,03,00,6.30
2021,04,20,03,01,6.30
2021,04,20,03,02,6.30
2021,04,20,03,03,6.40
2021,04,20,03,04,6.40
2021,04,20,03,05,6.40
2021,04,20,03,06,6.40
2021,04,20,03,07,6.40
2021,04,20,03,08,6.40
2021,04,20,03,09,6.40
2021,04,20,03,10,6.40
2021,04,20,03,11,6.40
2021,04,20,03,12,6.40
2021,04,20,03,13,6.40
2021,04,20,03,14,6.40
2021,04,20,03,15,6.40
2021,04,20,03,16,6.40
2021,04,20,03,17,6.40
2021,04,20,03,18,6.40
2021,04,20,03,19,6.40
2021,04,20,03,20,6.40
2021,04,20,03,21,6.40
2021,04,20,03,22,6.40
2021,04,20,03,23,6.40
2021,04,20,03,24,6.40
2021,04,20,03,25,6.40
2021,04,20,03,26,6.40
2021,04,20,03,27,6.40
2021,04,20,03,28,6.40
2021,04,20,03,29,6.30
2021,04,20,03,30,6.30
2021,04,20,03,31,6.30
2021,04,20,03,32,6.30
2021,04,20,03,33,6.40
2021,04,20,03,34,6.30
2021,04,20,03,35,6.30
2021,04,20,03,36,6.30
2021,04,20,03,37,6.40
2021,04,20,03,38,6.40
2021,04,20,03,39,6.40
2021,04,20,03,40,6.40
2021,04,20,03,41,6.40
2021,04,20,03,42,6.40
2021,04,20,03,43,6.40
2021,04,20,03,44,6.40
2021,04,20,03,45,6.40
2021,04,20,03,46,6.40
2021,04,20,03,47,6.40
2021,04,20,03,48,6.50
2021,04,20,03,49,6.50
2021,04,20,03,50,6.60
2021,04,20,03,51,6.60
2021,04,20,03,52,6.60
2021,04,20,03,53,6.70
2021,04,20,03,54,6.70
2021,04,20,03,55,6.70
2021,04,20,03,56,6.70
2021,04,20,03,57,6.80
2021,04,20,03,58,6.80
2021,04,20,03,59,6.80
2021,04,20,04,00,6.80
2021,04,20,04,01,6.80
2021,04,20,04,02,6.80
2021,04,20,04,03,6.80
2021,04,20,04,04,6.80
2021,04,20,04,05,6.80
2021,04,20,04,06,6.80
2021,04,20,04,07,6.80
2021,04,20,04,08,6.80
2021,04,20,04,09,6.80
2021,04,20,04,10,6.80
2021,04,20,04,11,6.80
2021,04,20,04,12,6.80
2021,04,20,04,13,6.90
2021,04,20,04,14,6.90
2021,04,20,04,15,6.90
2021,04,20,04,16,6.90
2021,04,20,04,17,6.80
2021,04,20,04,18,6.80
2021,04,20,04,19,6.80
2021,04,20,04,20,6.80
2021,04,20,04,21,6.80
2021,04,20,04,22,6.80
2021,04,20,04,23,6.80
2021,04,20,04,24,6.80
2021,04,20,04,25,6.80
2021,04,20,04,26,6.80
2021,04,20,04,27,6.80
2021,04,20,04,28,6.80
2021,04,20,04,29,6.80
2021,04,20,04,30,6.80
2021,04,20,04,31,6.80
2021,04,20,04,32,6.80
2021,04,20,04,33,6.80
2021,04,20,04,34,6.80
2021,04,20,04,35,6.80
2021,04,20,04,36,6.80
2021,04,20,04,37,6.80
2021,04,20,04,38,6.80
2021,04,20,04,39,6.80
2021,04,20,04,40,6.80
2021,04,20,04,41,6.80
2021,04,20,04,42,6.80
2021,04,20,04,43,6.80
2021,04,20,04,44,6.70
2021,04,20,04,45,6.80
2021,04,20,04,46,6.80
2021,04,20,04,47,6.80
2021,04,20,04,48,6.70
2021,04,20,04,49,6.70
2021,04,20,04,50,6.70
2021,04,20,04,51,6.70
2021,04,20,04,52,6.70
2021,04,20,04,53,6.70
2021,04,20,04,54,6.70
2021,04,20,04,55,6.70
2021,04,20,04,56,6.70
2021,04,20,04,57,6.70
2021,04,20,04,58,6.80
2021,04,20,04,59,6.80
2021,04,20,05,00,6.80
2021,04,20,05,01,6.80
2021,04,20,05,02,6.80
2021,04,20,05,03,6.80
2021,04,20,05,04,6.80
2021,04,20,05,05,6.80
2021,04,20,05,06,6.80
2021,04,20,05,07,6.80
2021,04,20,05,08,6.80
2021,04,20,05,09,6.80
2021,04,20,05,10,6.80
2021,04,20,05,11,6.80
2021,04,20,05,12,6.80
2021,04,20,05,13,6.90
2021,04,20,05,14,6.90
2021,04,20,05,15,6.90
2021,04,20,05,16,6.90
2021,04,20,05,17,6.90
2021,04,20,05,18,6.90
2021,04,20,05,19,6.90
2021,04,20,05,20,6.90
2021,04,20,05,21,6.90
2021,04,20,05,22,6.90
2021,04,20,05,23,6.90
2021,04,20,05,24,6.90
2021,04,20,05,25,6.90
2021,04,20,05,26,6.90
2021,04,20,05,27,6.90
2021,04,20,05,28,6.90
2021,04,20,05,29,6.90
2021,04,20,05,30,6.90
2021,04,20,05,31,6.90
2021,04,20,05,32,6.90
2021,04,20,05,33,6.90
2021,04,20,05,34,6.90
2021,04,20,05,35,6.90
2021,04,20,05,36,6.90
2021,04,20,05,37,6.90
2021,04,20,05,38,6.90
2021,04,20,05,39,6.90
2021,04,20,05,40,6.90
2021,04,20,05,41,6.90
2021,04,20,05,42,6.90
2021,04,20,05,43,6.90
2021,04,20,05,44,6.90
2021,04,20,05,45,6.80
2021,04,20,05,46,6.80
2021,04,20,05,47,6.80
2021,04,20,05,48,6.80
2021,04,20,05,49,6.80
2021,04,20,05,50,6.80
2021,04,20,05,51,6.80
2021,04,20,05,52,6.80
2021,04,20,05,53,6.70
2021,04,20,05,54,6.70
2021,04,20,05,55,6.70
2021,04,20,05,56,6.70
2021,04,20,05,57,6.60
2021,04,20,05,58,6.60
2021,04,20,05,59,6.60
2021,04,20,06,00,6.60
2021,04,20,06,01,6.60
2021,04,20,06,02,6.60
2021,04,20,06,03,6.60
2021,04,20,06,04,6.60
2021,04,20,06,05,6.60
2021,04,20,06,06,6.60
2021,04,20,06,07,6.60
2021,04,20,06,08,6.60
2021,04,20,06,09,6.60
2021,04,20,06,10,6.60
2021,04,20,06,11,6.60
2021,04,20,06,12,6.60
2021,04,20,06,13,6.60
2021,04,20,06,14,6.60
2021,04,20,06,15,6.60
2021,04,20,06,16,6.60
2021,04,20,06,17,6.60
2021,04,20,06,18,6.60
2021,04,20,06,19,6.50
2021,04,20,06,20,6.50
2021,04,20,06,21,6.50
2021,04,20,06,22,6.50
2021,04,20,06,23,6.50
2021,04,20,06,24,6.50
2021,04,20,06,25,6.50
2021,04,20,06,26,6.50
2021,04,20,06,27,6.50
2021,04,20,06,28,6.50
2021,04,20,06,29,6.60
2021,04,20,06,30,6.60
2021,04,20,06,31,6.60
2021,04,20,06,32,6.50
2021,04,20,06,33,6.50
2021,04,20,06,34,6.50
2021,04,20,06,35,6.50
2021,04,20,06,36,6.50
2021,04,20,06,37,6.50
2021,04,20,06,38,6.40
2021,04,20,06,39,6.40
2021,04,20,06,40,6.40
2021,04,20,06,41,6.40
2021,04,20,06,42,6.40
2021,04,20,06,43,6.40
2021,04,20,06,44,6.40
2021,04,20,06,45,6.40
2021,04,20,06,46,6.40
2021,04,20,06,47,6.40
2021,04,20,06,48,6.40
2021,04,20,06,49,6.40
2021,04,20,06,50,6.40
2021,04,20,06,51,6.50
2021,04,20,06,52,6.50
2021,04,20,06,53,6.50
2021,04,20,06,54,6.50
2021,04,20,06,55,6.50
2021,04,20,06,56,6.50
2021,04,20,06,57,6.50
2021,04,20,06,58,6.60
2021,04,20,06,59,6.60
2021,04,20,07,00,6.60
2021,04,20,07,01,6.60
2021,04,20,07,02,6.60
2021,04,20,07,03,6.60
2021,04,20,07,04,6.60
2021,04,20,07,05,6.70
2021,04,20,07,06,6.70
2021,04,20,07,07,6.70
2021,04,20,07,08,6.70
2021,04,20,07,09,6.70
2021,04,20,07,10,6.80
2021,04,20,07,11,6.80
2021,04,20,07,12,6.80
2021,04,20,07,13,6.80
2021,04,20,07,14,6.80
2021,04,20,07,15,6.90
2021,04,20,07,16,6.90
2021,04,20,07,17,7.00
2021,04,20,07,18,7.00
2021,04,20,07,19,7.10
2021,04,20,07,20,7.10
2021,04,20,07,21,7.20
2021,04,20,07,22,7.20
2021,04,20,07,23,7.30
2021,04,20,07,24,7.30
2021,04,20,07,25,7.40
2021,04,20,07,26,7.40
2021,04,20,07,27,7.50
2021,04,20,07,28,7.50
2021,04,20,07,29,7.60
2021,04,20,07,30,7.60
2021,04,20,07,31,7.70
2021,04,20,07,32,7.70
2021,04,20,07,33,7.80
2021,04,20,07,34,7.80
2021,04,20,07,35,7.90
2021,04,20,07,36,7.90
2021,04,20,07,37,8.00
2021,04,20,07,38,8.00
2021,04,20,07,39,8.10
2021,04,20,07,40,8.10
2021,04,20,07,41,8.20
2021,04,20,07,42,8.20
2021,04,20,07,43,8.30
2021,04,20,07,44,8.30
2021,04,20,07,45,8.40
2021,04,20,07,46,8.50
2021,04,20,07,47,8.60
2021,04,20,07,48,8.70
2021,04,20,07,49,8.80
2021,04,20,07,50,8.90
2021,04,20,07,51,9.00
2021,04,20,07,52,9.20
2021,04,20,07,53,9.30
2021,04,20,07,54,9.40
2021,04,20,07,55,9.40
2021,04,20,07,56,9.60
2021,04,20,07,57,9.60
2021,04,20,07,58,9.70
2021,04,20,07,59,9.80
2021,04,20,08,00,9.90
2021,04,20,08,01,10.00
2021,04,20,08,02,10.20
2021,04,20,08,03,10.30
2021,04,20,08,04,10.40
2021,04,20,08,05,10.50
2021,04,20,08,06,10.70
2021,04,20,08,07,10.80
2021,04,20,08,08,10.90
2021,04,20,08,09,11.00
2021,04,20,08,10,11.20
2021,04,20,08,11,11.30
2021,04,20,08,12,11.40
2021,04,20,08,13,11.60
2021,04,20,08,14,11.70
2021,04,20,08,15,11.80
2021,04,20,08,16,11.90
2021,04,20,08,17,12.00
2021,04,20,08,18,12.10
2021,04,20,08,19,12.20
2021,04,20,08,20,12.30
2021,04,20,08,21,12.40
2021,04,20,08,22,12.40
2021,04,20,08,23,12.50
2021,04,20,08,24,12.60
2021,04,20,08,25,12.60
2021,04,20,08,26,12.70
2021,04,20,08,27,12.70
2021,04,20,08,28,12.80
2021,04,20,08,29,12.90
2021,04,20,08,30,12.90
2021,04,20,08,31,12.90
2021,04,20,08,32,13.00
2021,04,20,08,33,13.00
2021,04,20,08,34,13.10
2021,04,20,08,35,13.10
2021,04,20,08,36,13.20
2021,04,20,08,37,13.20
2021,04,20,08,38,13.20
2021,04,20,08,39,13.20
2021,04,20,08,40,13.30
2021,04,20,08,41,13.30
2021,04,20,08,42,13.40
2021,04,20,08,43,13.40
2021,04,20,08,44,13.50
2021,04,20,08,45,13.50
2021,04,20,08,46,13.60
2021,04,20,08,47,13.60
2021,04,20,08,48,13.70
2021,04,20,08,49,13.70
2021,04,20,08,50,13.80
2021,04,20,08,51,13.90
2021,04,20,08,52,14.00
2021,04,20,08,53,14.00
2021,04,20,08,54,14.10
2021,04,20,08,55,14.10
2021,04,20,08,56,14.20
2021,04,20,08,57,14.30
2021,04,20,08,58,14.30
2021,04,20,08,59,14.30
2021,04,20,09,00,14.40
2021,04,20,09,01,14.40
2021,04,20,09,02,14.40
2021,04,20,09,03,14.40
2021,04,20,09,04,14.40
2021,04,20,09,05,14.40
2021,04,20,09,06,14.40
2021,04,20,09,07,14.50
2021,04,20,09,08,14.50
2021,04,20,09,09,14.60
2021,04,20,09,10,14.60
2021,04,20,09,11,14.70
2021,04,20,09,12,14.80
2021,04,20,09,13,14.80
2021,04,20,09,14,14.90
2021,04,20,09,15,15.00
2021,04,20,09,16,15.10
2021,04,20,09,17,15.20
2021,04,20,09,18,15.20
2021,04,20,09,19,15.30
2021,04,20,09,20,15.40
2021,04,20,09,21,15.50
2021,04,20,09,22,15.50
2021,04,20,09,23,15.60
2021,04,20,09,24,15.60
2021,04,20,09,25,15.70
2021,04,20,09,26,15.70
2021,04,20,09,27,15.80
2021,04,20,09,28,15.80
2021,04,20,09,29,15.80
2021,04,20,09,30,15.90
2021,04,20,09,31,15.90
2021,04,20,09,32,16.00
2021,04,20,09,33,16.10
2021,04,20,09,34,16.10
2021,04,20,09,35,16.10
2021,04,20,09,36,16.10
2021,04,20,09,37,16.10
2021,04,20,09,38,16.10
2021,04,20,09,39,16.10
2021,04,20,09,40,16.10
2021,04,20,09,41,16.20
2021,04,20,09,42,16.20
2021,04,20,09,43,16.20
2021,04,20,09,44,16.20
2021,04,20,09,45,16.20
2021,04,20,09,46,16.20
2021,04,20,09,47,16.20
2021,04,20,09,48,16.20
2021,04,20,09,49,16.20
2021,04,20,09,50,16.20
2021,04,20,09,51,16.20
2021,04,20,09,52,16.20
2021,04,20,09,53,16.10
2021,04,20,09,54,16.10
2021,04,20,09,55,16.10
2021,04,20,09,56,16.10
2021,04,20,09,57,16.10
2021,04,20,09,58,16.20
2021,04,20,09,59,16.20
2021,04,20,10,00,16.20
2021,04,20,10,01,16.20
2021,04,20,10,02,16.20
2021,04,20,10,03,16.20
2021,04,20,10,04,16.30
2021,04,20,10,05,16.30
2021,04,20,10,06,16.40
2021,04,20,10,07,16.50
2021,04,20,10,08,16.60
2021,04,20,10,09,16.60
2021,04,20,10,10,16.70
2021,04,20,10,11,16.70
2021,04,20,10,12,16.80
2021,04,20,10,13,16.80
2021,04,20,10,14,16.90
2021,04,20,10,15,16.80
2021,04,20,10,16,16.80
2021,04,20,10,17,16.70
2021,04,20,10,18,16.70
2021,04,20,10,19,16.70
2021,04,20,10,20,16.80
2021,04,20,10,21,16.80
2021,04,20,10,22,16.90
2021,04,20,10,23,17.00
2021,04,20,10,24,17.00
2021,04,20,10,25,17.10
2021,04,20,10,26,17.20
2021,04,20,10,27,17.20
2021,04,20,10,28,17.30
2021,04,20,10,29,17.30
2021,04,20,10,30,17.30
2021,04,20,10,31,17.30
2021,04,20,10,32,17.30
2021,04,20,10,33,17.30
2021,04,20,10,34,17.30
2021,04,20,10,35,17.30
2021,04,20,10,36,17.20
2021,04,20,10,37,17.20
2021,04,20,10,38,17.10
2021,04,20,10,39,17.00
2021,04,20,10,40,17.00
2021,04,20,10,41,17.00
2021,04,20,10,42,16.90
2021,04,20,10,43,16.90
2021,04,20,10,44,16.90
2021,04,20,10,45,17.00
2021,04,20,10,46,16.90
2021,04,20,10,47,16.90
2021,04,20,10,48,17.00
2021,04,20,10,49,17.00
2021,04,20,10,50,17.10
2021,04,20,10,51,17.20
2021,04,20,10,52,17.20
2021,04,20,10,53,17.30
2021,04,20,10,54,17.30
2021,04,20,10,55,17.30
2021,04,20,10,56,17.30
2021,04,20,10,57,17.30
2021,04,20,10,58,17.30
2021,04,20,10,59,17.30
2021,04,20,11,00,17.80
2021,04,20,11,01,17.90
2021,04,20,11,02,18.00
2021,04,20,11,03,18.00
2021,04,20,11,04,18.10
2021,04,20,11,05,18.10
2021,04,20,11,06,18.10
2021,04,20,11,07,18.10
2021,04,20,11,08,18.00
2021,04,20,11,09,17.90
2021,04,20,11,10,17.80
2021,04,20,11,11,17.80
2021,04,20,11,12,17.80
2021,04,20,11,13,17.70
2021,04,20,11,14,17.80
2021,04,20,11,15,17.80
2021,04,20,11,16,17.80
2021,04,20,11,17,17.90
2021,04,20,11,18,17.90
2021,04,20,11,19,17.90
2021,04,20,11,20,17.90
2021,04,20,11,21,18.00
2021,04,20,11,22,18.00
2021,04,20,11,23,18.10
2021,04,20,11,24,18.10
2021,04,20,11,25,18.20
2021,04,20,11,26,18.20
2021,04,20,11,27,18.20
2021,04,20,11,28,18.20
2021,04,20,11,29,18.20
2021,04,20,11,30,18.30
2021,04,20,11,31,18.30
2021,04,20,11,32,18.30
2021,04,20,11,33,18.30
2021,04,20,11,34,18.30
2021,04,20,11,35,18.40
2021,04,20,11,36,18.40
2021,04,20,11,37,18.40
2021,04,20,11,38,18.50
2021,04,20,11,39,18.50
2021,04,20,11,40,18.60
2021,04,20,11,41,18.70
2021,04,20,11,42,18.70
2021,04,20,11,43,18.70
2021,04,20,11,44,18.70
2021,04,20,11,45,18.60
2021,04,20,11,46,18.60
2021,04,20,11,47,18.50
2021,04,20,11,48,18.50
2021,04,20,11,49,18.40
2021,04,20,11,50,18.40
2021,04,20,11,51,18.40
2021,04,20,11,52,18.40
2021,04,20,11,53,18.40
2021,04,20,11,54,18.40
2021,04,20,11,55,18.40
2021,04,20,11,56,18.40
2021,04,20,11,57,18.40
2021,04,20,11,58,18.50
2021,04,20,11,59,18.50
2021,04,20,12,00,18.50
2021,04,20,12,01,18.40
2021,04,20,12,02,18.40
2021,04,20,12,03,18.50
2021,04,20,12,04,18.50
2021,04,20,12,05,18.60
2021,04,20,12,06,18.60
2021,04,20,12,07,18.70
2021,04,20,12,08,18.70
2021,04,20,12,09,18.80
2021,04,20,12,10,18.90
2021,04,20,12,11,18.90
2021,04,20,12,12,18.90
2021,04,20,12,13,19.00
2021,04,20,12,14,19.00
2021,04,20,12,15,19.10
2021,04,20,12,16,19.10
2021,04,20,12,17,19.10
2021,04,20,12,18,19.20
2021,04,20,12,19,19.20
2021,04,20,12,20,19.10
2021,04,20,12,21,19.10
2021,04,20,12,22,19.10
2021,04,20,12,23,19.20
2021,04,20,12,24,19.20
2021,04,20,12,25,19.20
2021,04,20,12,26,19.20
2021,04,20,12,27,19.20
2021,04,20,12,28,19.20
2021,04,20,12,29,19.20
2021,04,20,12,30,19.10
2021,04,20,12,31,19.10
2021,04,20,12,32,19.10
2021,04,20,12,33,19.00
2021,04,20,12,34,19.10
2021,04,20,12,35,19.10
2021,04,20,12,36,19.10
2021,04,20,12,37,19.10
2021,04,20,12,38,19.10
2021,04,20,12,39,19.20
2021,04,20,12,40,19.20
2021,04,20,12,41,19.30
2021,04,20,12,42,19.30
2021,04,20,12,43,19.40
2021,04,20,12,44,19.40
2021,04,20,12,45,19.40
2021,04,20,12,46,19.40
2021,04,20,12,47,19.50
2021,04,20,12,48,19.40
2021,04,20,12,49,19.50
2021,04,20,12,50,19.60
2021,04,20,12,51,19.60
2021,04,20,12,52,19.60
2021,04,20,12,53,19.70
2021,04,20,12,54,19.70
2021,04,20,12,55,19.80
2021,04,20,12,56,19.80
2021,04,20,12,57,19.90
2021,04,20,12,58,19.90
2021,04,20,12,59,20.00
2021,04,20,13,00,20.10
2021,04,20,13,01,20.10
2021,04,20,13,02,20.20
2021,04,20,13,03,20.20
2021,04,20,13,04,20.20
2021,04,20,13,05,20.20
2021,04,20,13,06,20.20
2021,04,20,13,07,20.20
2021,04,20,13,08,20.10
2021,04,20,13,09,20.10
2021,04,20,13,10,20.10
2021,04,20,13,11,20.10
2021,04,20,13,12,20.10
2021,04,20,13,13,20.10
2021,04,20,13,14,20.10
2021,04,20,13,15,20.20
2021,04,20,13,16,20.10
2021,04,20,13,17,20.10
2021,04,20,13,18,20.10
2021,04,20,13,19,20.10
2021,04,20,13,20,20.00
2021,04,20,13,21,19.90
2021,04,20,13,22,19.80
2021,04,20,13,23,19.80
2021,04,20,13,24,19.70
2021,04,20,13,25,19.60
2021,04,20,13,26,19.60
2021,04,20,13,27,19.50
2021,04,20,13,28,19.40
2021,04,20,13,29,19.40
2021,04,20,13,30,19.50
2021,04,20,13,31,19.50
2021,04,20,13,32,19.60
2021,04,20,13,33,19.60
2021,04,20,13,34,19.70
2021,04,20,13,35,19.70
2021,04,20,13,36,19.70
2021,04,20,13,37,19.60
2021,04,20,13,38,19.60
2021,04,20,13,39,19.60
2021,04,20,13,40,19.60
2021,04,20,13,41,19.60
2021,04,20,13,42,19.60
2021,04,20,13,43,19.70
2021,04,20,13,44,19.70
2021,04,20,13,45,19.80
2021,04,20,13,46,19.80
2021,04,20,13,47,19.80
2021,04,20,13,48,19.80
2021,04,20,13,49,19.80
2021,04,20,13,50,19.80
2021,04,20,13,51,19.80
2021,04,20,13,52,19.70
2021,04,20,13,53,19.60
2021,04,20,13,54,19.50
2021,04,20,13,55,19.50
2021,04,20,13,56,19.60
2021,04,20,13,57,19.60
2021,04,20,13,58,19.60
2021,04,20,13,59,19.60
2021,04,20,14,00,19.50
2021,04,20,14,01,19.40
2021,04,20,14,02,19.30
2021,04,20,14,03,19.30
2021,04,20,14,04,19.30
2021,04,20,14,05,19.30
2021,04,20,14,06,19.30
2021,04,20,14,07,19.20
2021,04,20,14,08,19.10
2021,04,20,14,09,19.10
2021,04,20,14,10,19.10
2021,04,20,14,11,19.20
2021,04,20,14,12,19.20
2021,04,20,14,13,19.10
2021,04,20,14,14,19.00
2021,04,20,14,15,19.00
2021,04,20,14,16,18.90
2021,04,20,14,17,18.80
2021,04,20,14,18,18.80
2021,04,20,14,19,18.80
2021,04,20,14,20,18.70
2021,04,20,14,21,18.60
2021,04,20,14,22,18.70
2021,04,20,14,23,18.70
2021,04,20,14,24,18.70
2021,04,20,14,25,18.70
2021,04,20,14,26,18.70
2021,04,20,14,27,18.70
2021,04,20,14,28,18.70
2021,04,20,14,29,18.80
2021,04,20,14,30,18.80
2021,04,20,14,31,18.80
2021,04,20,14,32,18.90
2021,04,20,14,33,18.90
2021,04,20,14,34,18.90
2021,04,20,14,35,18.90
2021,04,20,14,36,18.90
2021,04,20,14,37,18.90
2021,04,20,14,38,19.00
2021,04,20,14,39,19.00
2021,04,20,14,40,19.10
2021,04,20,14,41,19.10
2021,04,20,14,42,19.20
2021,04,20,14,43,19.20
2021,04,20,14,44,19.20
2021,04,20,14,45,19.20
2021,04,20,14,46,19.20
2021,04,20,14,47,19.10
2021,04,20,14,48,19.20
2021,04,20,14,49,19.20
2021,04,20,14,50,19.20
2021,04,20,14,51,19.20
2021,04,20,14,52,19.20
2021,04,20,14,53,19.20
2021,04,20,14,54,19.30
2021,04,20,14,55,19.30
2021,04,20,14,56,19.40
2021,04,20,14,57,19.40
2021,04,20,14,58,19.40
2021,04,20,14,59,19.40
2021,04,20,15,00,19.40
2021,04,20,15,01,19.40
2021,04,20,15,02,19.40
2021,04,20,15,03,19.40
2021,04,20,15,04,19.50
2021,04,20,15,05,19.60
2021,04,20,15,06,19.60
2021,04,20,15,07,19.70
2021,04,20,15,08,19.70
2021,04,20,15,09,19.80
2021,04,20,15,10,19.80
2021,04,20,15,11,19.80
2021,04,20,15,12,19.80
2021,04,20,15,13,19.80
2021,04,20,15,14,19.80
2021,04,20,15,15,19.80
2021,04,20,15,16,19.80
2021,04,20,15,17,19.80
2021,04,20,15,18,19.80
2021,04,20,15,19,19.80
2021,04,20,15,20,19.80
2021,04,20,15,21,19.80
2021,04,20,15,22,19.90
2021,04,20,15,23,19.90
2021,04,20,15,24,19.90
2021,04,20,15,25,19.90
2021,04,20,15,26,19.90
2021,04,20,15,27,19.90
2021,04,20,15,28,19.90
2021,04,20,15,29,19.90
2021,04,20,15,30,20.00
2021,04,20,15,31,19.90
2021,04,20,15,32,19.90
2021,04,20,15,33,19.90
2021,04,20,15,34,19.90
2021,04,20,15,35,19.90
2021,04,20,15,36,19.90
2021,04,20,15,37,19.90
2021,04,20,15,38,19.90
2021,04,20,15,39,19.90
2021,04,20,15,40,19.90
2021,04,20,15,41,19.90
2021,04,20,15,42,19.90
2021,04,20,15,43,20.00
2021,04,20,15,44,20.00
2021,04,20,15,45,20.10
2021,04,20,15,46,20.10
2021,04,20,15,47,20.10
2021,04,20,15,48,20.10
2021,04,20,15,49,20.10
2021,04,20,15,50,20.10
2021,04,20,15,51,20.10
2021,04,20,15,52,20.10
2021,04,20,15,53,20.10
2021,04,20,15,54,20.10
2021,04,20,15,55,20.10
2021,04,20,15,56,20.10
2021,04,20,15,57,20.10
2021,04,20,15,58,20.10
2021,04,20,15,59,20.20
2021,04,20,16,00,20.30
2021,04,20,16,01,20.30
2021,04,20,16,02,20.30
2021,04,20,16,03,20.40
2021,04,20,16,04,20.40
2021,04,20,16,05,20.40
2021,04,20,16,06,20.50
2021,04,20,16,07,20.50
2021,04,20,16,08,20.50
2021,04,20,16,09,20.60
2021,04,20,16,10,20.60
2021,04,20,16,11,20.70
2021,04,20,16,12,20.80
2021,04,20,16,13,20.80
2021,04,20,16,14,20.80
2021,04,20,16,15,20.90
2021,04,20,16,16,20.90
2021,04,20,16,17,20.90
2021,04,20,16,18,20.90
2021,04,20,16,19,20.80
2021,04,20,16,20,20.80
2021,04,20,16,21,20.80
2021,04,20,16,22,20.80
2021,04,20,16,23,20.80
2021,04,20,16,24,20.80
2021,04,20,16,25,20.70
2021,04,20,16,26,20.70
2021,04,20,16,27,20.70
2021,04,20,16,28,20.70
2021,04,20,16,29,20.60
2021,04,20,16,30,20.60
2021,04,20,16,31,20.60
2021,04,20,16,32,20.60
2021,04,20,16,33,20.60
2021,04,20,16,34,20.60
2021,04,20,16,35,20.60
2021,04,20,16,36,20.70
2021,04,20,16,37,20.70
2021,04,20,16,38,20.70
2021,04,20,16,39,20.70
2021,04,20,16,40,20.70
2021,04,20,16,41,20.70
2021,04,20,16,42,20.70
2021,04,20,16,43,20.70
2021,04,20,16,44,20.70
2021,04,20,16,45,20.70
2021,04,20,16,46,20.70
2021,04,20,16,47,20.60
2021,04,20,16,48,20.60
2021,04,20,16,49,20.60
2021,04,20,16,50,20.60
2021,04,20,16,51,20.60
2021,04,20,16,52,20.50
2021,04,20,16,53,20.50
2021,04,20,16,54,20.50
2021,04,20,16,55,20.60
2021,04,20,16,56,20.60
2021,04,20,16,57,20.70
2021,04,20,16,58,20.70
2021,04,20,16,59,20.70
2021,04,20,17,00,20.70
2021,04,20,17,01,20.80
2021,04,20,17,02,20.90
2021,04,20,17,03,20.90
2021,04,20,17,04,20.80
2021,04,20,17,05,20.80
2021,04,20,17,06,20.80
2021,04,20,17,07,20.80
2021,04,20,17,08,20.70
2021,04,20,17,09,20.70
2021,04,20,17,10,20.70
2021,04,20,17,11,20.60
2021,04,20,17,12,20.60
2021,04,20,17,13,20.60
2021,04,20,17,14,20.60
2021,04,20,17,15,20.60
2021,04,20,17,16,20.50
2021,04,20,17,17,20.50
2021,04,20,17,18,20.50
2021,04,20,17,19,20.50
2021,04,20,17,20,20.50
2021,04,20,17,21,20.60
2021,04,20,17,22,20.60
2021,04,20,17,23,20.60
2021,04,20,17,24,20.60
2021,04,20,17,25,20.60
2021,04,20,17,26,20.60
2021,04,20,17,27,20.70
2021,04,20,17,28,20.70
2021,04,20,17,29,20.80
2021,04,20,17,30,20.90
2021,04,20,17,31,20.90
2021,04,20,17,32,21.00
2021,04,20,17,33,21.00
2021,04,20,17,34,21.10
2021,04,20,17,35,21.00
2021,04,20,17,36,21.00
2021,04,20,17,37,20.90
2021,04,20,17,38,20.90
2021,04,20,17,39,21.00
2021,04,20,17,40,21.00